Montreal Mirabel, Quebec

9:21 AM EDT on May 24, 2017 (GMT -0400)
Montreal Mirabel

Weather History for CYMX - November, 2014

Change the Weather History Date:

Thursday, November 13, 2014

  Actual Average Record
Temperature  
Mean Temperature 34 °F -  
Max Temperature 39 °F 37 °F 57 °F (2005)
Min Temperature 30 °F 25 °F 12 °F (1996)
Degree Days  
Heating Degree Days 30    
Moisture  
Dew Point 22 °F    
Average Humidity 64    
Maximum Humidity 87    
Minimum Humidity 45    
Precipitation  
Precipitation 0.00 in - - ()
Sea Level Pressure  
Sea Level Pressure 30.01 in    
Wind  
Wind Speed 8 mph ()    
Max Wind Speed 16 mph    
Max Gust Speed 28 mph    
Averages and records for this station are not official NWS values.
T = Trace of Precipitation, MM = Missing Value Source: Averaged Metar Reports

Daily Weather History Graph

Daily Weather History Graph

Search for Another Location

Airport or City:

Trip Planner

Search our weather history database for the weather conditions in past years. The results will help you decide how hot, cold, wet, or windy it might be!

Date:

Astronomy

Nov. 13, 2014 Rise Set
Actual Time 6:52 AM EST 4:27 PM EST
Civil Twilight 6:20 AM EST 4:59 PM EST
Nautical Twilight 5:44 AM EST 5:35 PM EST
Astronomical Twilight 5:09 AM EST 6:10 PM EST
Moon 10:46 PM EST (11/13) 12:07 PM EST (11/13)
Length of Visible Light 10h 38m
Length of Day
9h 34m
Waning Gibbous, 59% of the Moon is Illuminated
Nov 13
Waning Gibbous
Nov 14
Last Quarter
Nov 22
New
Nov 29
First Quarter
Dec 6
Full

Hourly Weather History & Observations

Time (EST) Temp. Windchill Dew Point Humidity Pressure Visibility Wind Dir Wind Speed Gust Speed Precip Events Conditions
12:00 AM 32.0 °F 24.8 °F 19.4 °F 60% 30.03 in 25.0 mi SW 8.1 mph - N/A   Partly Cloudy
1:00 AM 32.0 °F 24.8 °F 21.2 °F 64% 30.03 in 25.0 mi SW 8.1 mph - N/A   Partly Cloudy
2:00 AM 32.0 °F 25.6 °F 23.0 °F 69% 30.04 in 25.0 mi SW 6.9 mph - N/A   Mostly Cloudy
3:00 AM 32.0 °F 24.2 °F 23.0 °F 69% 30.04 in 25.0 mi SW 9.2 mph - N/A   Scattered Clouds
4:00 AM 32.0 °F 26.4 °F 23.0 °F 69% 30.03 in 25.0 mi SW 5.8 mph - N/A   Mostly Cloudy
5:00 AM 32.0 °F 23.6 °F 23.0 °F 69% 30.02 in 25.0 mi SW 10.4 mph - N/A   Mostly Cloudy
6:00 AM 30.2 °F 20.8 °F 23.0 °F 75% 30.02 in 25.0 mi SW 11.5 mph 18.4 mph N/A   Partly Cloudy
7:00 AM 30.2 °F 21.9 °F 21.2 °F 69% 30.03 in 45.0 mi SW 9.2 mph 17.3 mph N/A   Partly Cloudy
8:00 AM 32.0 °F 23.0 °F 21.2 °F 64% 30.04 in 45.0 mi WSW 11.5 mph 19.6 mph N/A   Scattered Clouds
9:00 AM 33.8 °F 26.4 °F 21.2 °F 60% 30.04 in 45.0 mi WSW 9.2 mph - N/A   Scattered Clouds
10:00 AM 35.6 °F 26.6 °F 19.4 °F 52% 30.03 in 45.0 mi WSW 13.8 mph 24.2 mph N/A   Scattered Clouds
11:00 AM 37.4 °F 28.2 °F 19.4 °F 48% 30.03 in 45.0 mi West 16.1 mph 26.5 mph N/A   Scattered Clouds
11:20 AM 35.6 °F 25.9 °F 19.4 °F 52% 30.02 in 45.0 mi West 16.1 mph 27.6 mph N/A   Scattered Clouds
12:00 PM 39.2 °F 31.2 °F 19.4 °F 45% 30.01 in 45.0 mi SW 13.8 mph 23.0 mph N/A   Scattered Clouds
1:00 PM 39.2 °F 31.2 °F 19.4 °F 45% 29.99 in 45.0 mi SW 13.8 mph 21.9 mph N/A   Mostly Cloudy
2:00 PM 37.4 °F 29.8 °F 19.4 °F 48% 29.99 in 45.0 mi West 11.5 mph 19.6 mph N/A   Mostly Cloudy
3:00 PM 37.4 °F 31.4 °F 21.2 °F 52% 29.98 in 45.0 mi WSW 8.1 mph 17.3 mph N/A   Mostly Cloudy
4:00 PM 35.6 °F 29.9 °F 21.2 °F 56% 29.98 in 45.0 mi WSW 6.9 mph - N/A   Mostly Cloudy
5:00 PM 35.6 °F 30.7 °F 21.2 °F 56% 29.98 in 25.0 mi SW 5.8 mph - N/A   Mostly Cloudy
6:00 PM 35.6 °F 30.7 °F 23.0 °F 60% 29.98 in 25.0 mi SW 5.8 mph - N/A   Mostly Cloudy
7:00 PM 33.8 °F 28.6 °F 23.0 °F 65% 29.98 in 25.0 mi WSW 5.8 mph - N/A   Mostly Cloudy
8:00 PM 33.8 °F 28.6 °F 23.0 °F 65% 29.98 in 25.0 mi SW 5.8 mph - N/A   Mostly Cloudy
9:00 PM 32.0 °F 27.5 °F 26.6 °F 80% 29.99 in 25.0 mi SW 4.6 mph - N/A   Mostly Cloudy
10:00 PM 32.0 °F 27.5 °F 28.4 °F 87% 29.98 in 25.0 mi SW 4.6 mph - N/A   Mostly Cloudy
10:32 PM 32.0 °F 26.4 °F 28.4 °F 87% 29.97 in 25.0 mi SW 5.8 mph - N/A   Overcast
11:00 PM 32.0 °F 25.6 °F 28.4 °F 87% 29.97 in 25.0 mi SW 6.9 mph - N/A   Overcast